Regional Weather Roundup
Issued by NWS Columbia, SC

Home | Current Version | Previous Version | Text Only | Print | Product List | Glossary On
Versions: 1 2 3 4 5 6 7 8 9 10 11 12 13 14 15 16 17 18 19 20 21 22 23 24 25 26 27 28 29 30 31 32 33 34 35 36 37 38 39 40 41 42 43 44 45 46 47 48 49 50
000
ASUS42 KCAE 052110
RWRCAE
REGIONAL WEATHER ROUNDUP
NATIONAL WEATHER SERVICE COLUMBIA SC
500 PM EDT TUE MAY 05 2015

NOTE: "FAIR" INDICATES FEW OR NO CLOUDS BELOW 12,000 FEET WITH NO
SIGNIFICANT WEATHER AND/OR OBSTRUCTIONS TO VISIBILITY.

NOT ALL STATIONS ARE QUALITY CONTROLLED BY THE NATIONAL
WEATHER SERVICE. USE DATA WITH CAUTION...ESPECIALLY
DEWPOINT OBSERVATIONS.

SCZ001>056-GAZ040-063>065-077-052200-
...UPSTATE SOUTH CAROLINA...

CITY           SKY/WX    TMP DP  RH WIND       PRES   REMARKS
ANDERSON       MOSUNNY   81  51  35 SE5       30.24F
LIBERTY        CLEAR     82  52  34 SE8       30.24F
SPARTANBURG    SUNNY     84  50  30 SE6       30.24F
CLEMSON        SUNNY     81  52  36 VRB6      30.25F
GREENVILLE     MOSUNNY   81  51  35 SE10      30.26F
GREENWOOD      SUNNY     82  51  34 SE10      30.26F
GREER          SUNNY     81  53  37 NE5       30.24F
ROCK HILL      MOSUNNY   81  52  36 VRB6      30.25F
CHESTER        PTCLDY    82  46  28 SE3       30.25F
LAURENS        PTCLDY    79  61  53 SE5       30.25S


...CENTRAL SOUTH CAROLINA...

CITY           SKY/WX    TMP DP  RH WIND       PRES   REMARKS
COLUMBIA APT   MOSUNNY   82  52  35 SE12G18   30.23F
COLUMBIA OWENS SUNNY     82  51  34 SE8       30.25F
DARLINGTON     SUNNY     82  54  36 E10       30.25F
FLORENCE       MOSUNNY   82  51  34 S12G17    30.24F
MCENTIRE ANGB  MOSUNNY   81  53  38 E13       30.24F
ORANGEBURG     PTSUNNY   78  50  37 SE6       30.24F
SUMTER SHAW    MOSUNNY   82  52  35 SE9       30.23F
NEWBERRY       PTCLDY    79  52  38 SE8       30.27F
AIKEN          FAIR      79  46  31 E9        30.27F
BARNWELL       FAIR      82  52  34 E9G18     30.23F
MANNING        FAIR      79  45  29 S6        30.24F
CAMDEN         FAIR      81  52  36 E9        30.25F
LANCASTER      CLEAR     81  52  36 S3        30.25F
WINNSBORO      CLEAR     81  52  36 S6        30.24F


...EASTERN AND COASTAL SOUTH CAROLINA...

CITY           SKY/WX    TMP DP  RH WIND       PRES   REMARKS
MYRTLE BEACH   SUNNY     73  55  53 SE14      30.30F
N MYRTLE BCH   PTSUNNY   74  56  53 E13       30.28F
CONWAY         FAIR      77  54  44 SE6       30.28S
MARION         FAIR      81  52  36 SE6       30.25F
HARTSVILLE     FAIR      79  50  36 S3        30.24F
FLORENCE       MOSUNNY   82  51  34 S12G17    30.24F
DARLINGTON     SUNNY     82  54  36 E10       30.25F
CHARLESTON APT MOSUNNY   78  56  46 E13G18    30.24F
MOUNT PLEASANT FAIR      77  59  53 MISG      30.25F
WALTERBORO     PTCLDY    79  46  31 E9        30.24F
BEAUFORT       PTSUNNY   79  57  46 E9        30.23F


...EASTERN GEORGIA...

CITY           SKY/WX    TMP DP  RH WIND       PRES   REMARKS
AUGUSTA BUSH F MOSUNNY   82  53  36 E7        30.22F
AUGUSTA DANIEL MOSUNNY   82  49  31 E10       30.23F
THOMSON        MOSUNNY   83  56  39 CALM      30.27F
WASHINGTON     FAIR      81  59  47 E7        30.24F
CLAXTON        FAIR      79  55  44 E12G17    30.22S
SYLVANIA       PTCLDY    77  58  52 E7        30.23F
STATESBORO       N/A     80  55  41 SE6       30.22F
SAVANNAH       PTSUNNY   76  54  46 E8        30.23F


...SOUTHERN NORTH CAROLINA...

CITY           SKY/WX    TMP DP  RH WIND       PRES   REMARKS
CHARLOTTE      MOSUNNY   82  52  35 SE13G20   30.25F
MONROE         MOSUNNY   81  53  37 VRB5      30.24F
WADESBORO      CLEAR     82  51  33 SE3       30.24F
ROCKINGHAM     PTCLDY    81  52  36 SE7       30.25S
RUTHERFORDTON  MOSUNNY   80  53  39 S9G17     30.25F
ASHEVILLE      CLOUDY    77  47  34 SE9       30.28F

$$


USA.gov is the U.S. government's official web portal to all federal, state and local government web resources and services.